Back to catalog

STARLINK-37832

AliveCommunicationsSSO
NORAD 100231·PAYLOAD·🇺🇸 United States

Launched Aug 4, 2026 from Vandenberg Space Force Base

Loading…

Next Passes (next 24 hours)

TLE

FreshSource: Space-Track

Epoch: Sep 14, 2026, 15:13 UTC

1 A0231U 26177U   26257.63460822  .00030609  00000-0  56168-3 0  9999
2 A0231  97.2836 308.5486 0001866 101.6703 258.4757 15.49218143  7593

Track STARLINK-37832 in real time with AllMySat

Download on the App Store